Showing default

NULINK-2, 68994

Orbit data source: Space-Track

NULINK-2, 68994 is a payload satellite owned by NuSpace (SG) in SSO that was launched on Sun, 03 May 2026 UTC via an FALCON 9 launch vehicle from the Air Force Western Test Range (AFWTR). Payload-class satellites include a variety of spacecraft equipped with specific instruments for various scientific and technological missions. These include communications satellites like Starlink; space stations such as the ISS; scientific satellites like the Hubble; Earth observation satellites from companies like Planet Labs, Umbra, and HawkEye 360; GPS; miniature CubeSats for education and research; and military/defense satellites.

Loading next visibility...
Identifier
68994, 2026-100Q
Orbit
SSO
Country
Flag of SGSG / SING
Related business
Manufacturer
NuSpace
Mission
Operational spacecraft
Bus & Motor
CUBESAT 3U, Unknown motor
Mass
3 kg wet, 3 kg dry
Launch date (UTC)
2026-05-03 (1 month ago)
Launch vehicle
FALCON 9
Launch site
Air Force Western Test Range (AFWTR)
Object type
Payload
Rocket body
Debris
Shape & HBR
Unknown shape, 14.5 m
Radar Cross Section
Medium (>0.1 m² and <1 m²)

Expand to show TLE details & history
Last TLE update: 10 hours ago

TLE from 10 hours ago
0 NULINK-2
1 68994U 26100Q   26168.65625333  .00002863  00000-0  28392-3 0  9997
2 68994  97.7331  66.1414 0001282  47.5654 312.5674 14.92562873  6779
Epoch: 2026-06-17T15:45Z
TLE epoch observation values (Epoch: 2026-06-17T15:45:00.287Z)
Latitude
0.00001°
Longitude
-76.0206°
Altitude
592.387 km
Speed
7.564 km/s
True Right ascension
04h 24m 33s
True Declination
0° 00' 00"
Sunlit
Object was in daylight at epoch
Visualization orbit readout
Latitude
Unknown
Longitude
Unknown
Altitude
Unknown
Speed
Unknown
Apparent Right ascension
Unknown
Apparent Declination
Unknown
Sunlit
N/A
Visualization observer readout
Local Sidereal Time
12:54:54
Azimuth
Unknown
Elevation
Unknown
Doppler factor
Unknown
Orbital elements
Apogee altitude
587.857 km
Perigee altitude
586.071 km
Semi-major axis
6,965.101 km
Eccentricity
0.00013
Inclination
97.7331°
RAAN
66.1414°
Arg. of periapsis
47.5654°
True anomaly
312.55658°
Mean anomaly
312.5674°
Eccentric anomaly
312.56199°
Mean motion
3.73381 °/min
Orbital period
96.42 mins
BSTAR
0.00028392
Loading maneuver chart data...
Computing Atmospheric mass density...
Loading historical data...
Loading historical data...
Loading historical data...
Loading historical data...
Loading historical data...
Loading historical data...
Loading historical data...

Documentation

Showing up to 5 results
|